EHI
16 37 61 69 66 59 52 47 43 37 30 27 28 29 32 35 37 35 31 27 22 19 18 17 14 11 7 8 10 11 8 5 6 7 9 16 22 24 26 26 20 15 16
27 42 63 71 69 61 53 47 42 37 31 26 25 27 29 32 32 31 28 25 21 18 17 16 13 10 7 6 8 9 6 5 6 7 8 13 17 21 25 26 19 15 15
42 51 65 73 73 68 59 50 42 37 30 24 21 22 24 26 27 26 26 23 20 17 14 13 11 9 6 5 5 5 4 3 4 6 6 8 11 17 23 24 21 17 15
49 56 66 74 76 74 65 54 44 36 29 23 19 18 18 21 22 23 23 21 17 14 12 11 11 9 6 4 2 1 2 3 4 5 4 3 7 14 18 19 20 18 14
46 54 65 73 76 75 68 55 44 35 28 23 18 15 14 16 18 18 17 15 13 11 10 11 12 11 7 4 1 0 1 3 4 4 2 1 5 11 12 13 16 17 15
40 47 59 69 74 73 67 56 45 36 29 23 18 14 13 14 16 15 11 10 8 8 8 9 11 12 9 4 1 1 2 3 3 2 1 0 3 8 9 10 14 17 16
37 41 52 65 70 69 65 59 51 42 34 28 23 20 18 17 18 15 11 7 5 5 5 7 9 10 9 5 3 3 3 3 2 1 1 0 3 8 12 13 16 17 18
35 39 48 57 62 64 64 61 56 48 41 36 32 28 25 23 20 16 11 8 5 4 4 4 5 7 7 5 3 3 3 4 3 2 1 1 3 10 17 18 18 18 18
36 39 44 47 52 57 59 58 57 51 44 40 37 32 28 24 19 14 10 8 7 5 3 2 2 4 4 4 3 2 3 5 4 3 2 1 3 10 17 20 20 19 18
37 38 41 43 44 46 48 50 52 48 43 41 39 33 27 22 17 12 9 9 9 7 5 3 2 3 4 3 3 1 2 3 4 3 3 3 4 9 15 21 23 21 19
36 36 37 39 38 37 38 41 42 40 39 39 38 34 29 23 17 12 9 9 10 9 7 6 6 6 6 4 3 2 2 3 3 3 3 5 8 12 18 25 27 26 22
31 31 30 30 31 32 35 36 33 31 32 33 32 31 28 22 17 12 9 8 10 10 10 9 10 10 9 7 4 2 2 4 4 3 2 6 12 16 22 29 32 30 28
28 27 24 23 24 27 31 34 31 28 28 27 26 26 24 21 17 13 10 8 9 12 13 12 12 12 11 8 5 2 2 5 6 3 2 6 12 17 23 31 35 33 31
28 27 25 22 21 22 25 30 31 30 28 25 23 23 22 20 17 13 12 12 13 15 16 14 12 11 9 6 3 1 1 3 5 3 2 5 11 17 22 28 33 34 33
30 29 28 25 23 23 24 27 28 28 26 22 21 22 22 21 18 15 15 16 17 18 17 15 12 10 6 3 0 0 0 1 2 2 2 5 12 17 20 23 27 30 31
32 32 31 29 27 25 25 25 25 23 21 20 19 20 21 20 18 17 16 16 17 18 17 13 11 8 4 1 0 0 0 0 1 2 2 5 11 15 16 18 20 22 24
35 34 31 28 27 26 24 22 22 21 19 18 17 18 18 18 17 15 14 13 15 16 14 10 8 5 2 1 0 0 0 0 0 1 1 4 7 9 11 14 16 18 18
35 34 29 26 25 24 22 20 21 21 19 17 16 16 18 19 17 14 11 11 12 13 12 9 6 3 2 1 1 1 0 0 0 0 0 1 2 4 6 9 13 15 16
32 31 28 25 22 21 20 19 20 20 19 18 16 16 17 19 18 15 12 12 12 12 10 7 4 3 3 2 2 1 0 0 0 0 0 0 0 1 2 4 8 12 15
28 27 25 22 19 17 18 19 19 18 18 16 15 14 14 16 17 16 15 14 13 11 9 6 3 2 2 2 1 0 0 0 0 0 0 0 0 0 1 2 4 8 11
23 21 18 16 15 15 15 17 16 15 14 14 13 13 14 15 16 16 16 15 13 10 8 6 3 1 1 1 1 1 1 0 0 0 0 0 0 0 0 1 2 3 5
19 16 12 11 12 12 11 12 12 11 11 11 12 13 14 15 16 16 14 12 12 10 8 7 4 1 1 2 4 3 2 1 0 0 0 0 0 0 0 0 0 1 1
13 11 10 9 9 9 9 10 10 9 9 9 10 11 13 14 16 16 13 11 11 11 10 8 6 3 2 3 5 5 3 1 0 0 0 0 0 0 0 0 0 0 0
7 8 8 8 7 7 7 8 9 9 9 8 7 9 10 11 12 13 12 10 11 11 10 9 8 6 4 4 5 5 2 0 0 0 0 0 0 0 0 0 0 0 0
5 6 7 7 6 5 5 6 7 7 7 6 6 7 8 8 8 9 9 8 7 9 9 9 9 7 6 4 4 4 3 1 1 1 0 0 0 0 0 0 0 0 0
4 6 6 6 6 4 4 5 6 6 4 4 3 5 6 6 5 6 7 6 4 5 7 9 9 8 7 5 4 4 3 2 2 2 1 0 0 0 0 0 0 0 0
Wind_Speed
7 10 15 16 16 16 15 14 14 14 14 14 14 13 13 14 14 14 13 13 12 11 11 10 9 8 8 8 8 8 9 9 9 9 10 10 10 10 10 11 11 8 12
13 13 17 17 17 16 15 15 14 14 13 13 13 13 12 12 12 12 12 11 10 10 9 9 8 7 7 7 7 7 8 8 8 8 8 8 9 9 9 10 11 7 12
15 13 15 17 17 16 16 15 14 14 13 13 12 12 12 11 11 11 10 10 9 8 8 8 7 7 6 6 6 6 6 6 6 7 7 3 5 8 9 10 12 12 12
16 12 13 16 17 17 16 15 15 14 13 13 12 12 11 11 10 10 9 9 8 8 7 7 6 6 6 5 5 5 5 4 5 5 3 3 3 7 9 11 12 12 12
13 11 13 18 17 16 16 15 15 14 13 13 12 11 11 10 10 9 9 8 8 7 7 6 6 5 5 5 4 4 4 4 4 3 2 3 3 7 10 11 11 11 12
11 9 12 17 17 16 16 15 15 14 13 13 12 11 11 10 9 9 8 8 7 7 7 6 6 5 5 5 4 4 4 4 3 1 2 3 4 9 11 11 12 12 12
11 9 11 15 16 16 15 15 14 14 13 12 12 11 11 10 9 9 9 8 8 7 7 7 6 6 6 5 5 5 5 5 2 2 2 3 5 10 12 13 13 13 12
12 10 9 15 16 15 15 15 14 13 13 12 12 11 10 10 10 9 9 9 8 8 8 7 7 7 7 6 6 6 6 6 4 2 2 3 6 10 12 13 13 13 13
10 10 8 8 10 13 14 13 13 12 12 12 11 11 11 10 10 10 9 9 9 9 9 9 8 8 8 7 7 7 7 7 3 2 3 3 7 12 13 13 13 13 13
8 8 7 6 6 7 8 12 13 12 12 12 11 11 11 10 10 10 9 9 9 9 9 9 9 9 8 8 8 8 8 7 4 3 2 4 9 13 14 13 14 14 14
7 6 6 6 6 5 6 9 10 11 11 10 9 11 9 5 5 5 7 8 9 10 9 9 9 9 9 8 9 9 8 3 3 3 3 6 10 13 14 14 15 15 14
7 6 6 7 7 6 6 4 3 5 5 5 4 6 4 4 3 5 6 9 9 9 10 10 10 9 7 3 6 8 3 4 3 3 4 9 11 13 14 14 15 15 15
8 7 6 6 7 6 5 5 3 3 3 3 4 5 3 3 2 3 2 4 5 7 5 5 5 3 3 3 3 3 4 4 3 4 5 10 12 13 13 13 14 15 16
6 7 7 7 7 6 5 5 4 3 3 3 4 4 4 3 3 3 2 3 3 3 3 3 2 3 3 4 5 5 5 4 4 3 5 11 12 13 14 14 14 15 16
5 5 5 6 6 5 4 3 4 4 4 4 3 4 4 4 4 3 3 3 3 3 3 3 3 3 4 5 5 5 5 5 5 5 4 10 12 13 14 14 15 15 16
5 4 4 5 5 5 4 4 3 3 3 3 3 4 4 3 3 3 2 2 3 3 3 4 4 4 4 3 4 5 5 4 5 5 5 6 10 12 13 14 14 15 15
5 4 4 4 4 4 4 4 3 3 3 3 3 3 3 3 3 2 2 2 3 3 3 3 3 3 3 3 4 5 5 5 4 5 5 4 5 9 12 13 13 14 15
5 4 2 3 3 3 3 3 3 2 3 3 2 2 3 4 3 2 2 2 3 2 2 2 2 2 3 3 4 4 4 4 4 4 4 4 4 5 8 11 12 12 12
5 4 4 3 2 2 3 2 2 2 2 2 2 2 2 3 3 3 2 2 2 2 2 3 2 2 3 3 4 4 3 4 4 3 3 4 5 5 4 8 11 11 12
4 5 4 4 3 2 2 2 1 1 0 1 1 1 2 2 3 3 2 2 1 1 1 1 2 2 2 3 3 3 3 3 3 3 4 3 4 5 5 5 5 7 11
5 5 4 4 2 2 1 1 1 0 0 0 1 1 2 2 2 2 2 1 1 1 2 2 1 2 2 1 0 2 3 3 2 3 3 3 3 4 4 4 4 3 4
3 3 3 3 2 2 1 0 1 0 0 1 1 1 1 2 2 2 2 2 2 1 1 1 1 1 1 1 1 0 2 3 3 3 2 3 3 3 3 5 4 4 4
3 2 2 1 2 2 2 1 1 1 1 1 1 1 2 2 2 2 2 2 1 1 1 2 2 2 2 2 1 2 2 3 3 2 3 3 2 2 3 3 4 4 5
2 2 1 2 2 2 2 1 1 1 0 1 1 1 1 1 1 1 2 2 2 2 2 2 2 2 2 2 2 2 2 3 2 2 3 2 3 3 3 3 3 3 4
2 2 2 3 3 3 2 1 0 0 1 1 1 1 1 2 2 1 1 1 2 2 2 2 2 2 2 3 2 2 2 1 2 2 3 3 3 3 3 3 3 3 3
2 2 2 3 3 3 3 2 0 1 0 0 1 1 1 1 2 2 1 1 2 2 2 3 2 2 3 3 3 2 2 2 2 2 3 2 3 3 3 3 3 3 3
Wind_Direction
157 161 154 146 141 138 136 133 129 126 122 119 116 115 114 113 115 117 120 123 126 127 127 127 128 128 127 125 124 124 127 133 136 137 140 142 142 144 146 146 142 140 140
153 157 154 149 145 143 141 139 136 133 131 128 126 124 122 120 120 121 123 125 128 129 130 132 133 134 134 133 133 133 135 138 139 141 146 148 148 149 150 151 148 148 145
146 153 154 151 148 147 146 144 142 140 139 137 135 133 131 130 130 130 131 132 134 136 137 139 140 140 140 141 143 145 146 147 147 150 151 150 154 154 153 151 150 149 150
146 151 154 153 151 149 148 148 148 147 146 145 145 145 144 143 143 143 143 143 145 147 148 150 151 150 152 153 155 157 160 162 162 159 153 172 177 162 158 155 154 154 156
144 149 154 154 153 152 152 153 153 154 154 154 155 155 155 155 155 155 156 157 159 159 160 162 162 162 167 171 176 181 187 191 187 181 189 194 191 179 170 165 163 162 162
142 146 154 154 154 155 155 156 158 159 161 162 164 165 165 165 165 167 169 170 170 171 173 176 178 178 185 190 196 206 216 217 221 211 221 213 201 192 182 176 173 170 167
143 147 153 156 156 156 157 158 161 162 165 168 170 172 172 173 175 177 180 182 183 185 188 191 192 193 199 206 214 223 230 238 232 220 218 219 214 195 187 183 179 176 175
144 148 155 159 159 160 161 163 165 166 167 169 173 174 177 180 182 185 190 193 193 196 200 203 204 208 212 218 228 236 241 245 245 239 227 223 216 200 190 187 183 180 180
141 147 152 158 161 163 164 166 168 171 173 176 178 179 182 185 188 193 198 202 204 207 210 213 215 218 221 226 236 243 246 251 251 229 239 221 214 205 196 191 188 187 186
138 146 153 157 157 161 166 172 174 176 179 182 185 186 190 193 196 201 205 212 214 218 222 223 224 224 227 231 238 243 246 253 244 234 230 228 224 213 205 197 194 193 191
137 149 153 156 161 165 169 177 176 180 183 186 191 194 195 198 202 207 215 221 225 227 230 232 232 233 233 236 239 244 247 233 229 240 228 232 227 216 208 202 200 200 197
155 160 162 164 168 166 171 161 171 185 186 187 192 194 191 188 191 204 222 227 230 232 234 235 237 240 237 236 241 245 238 226 227 234 234 232 223 216 209 206 207 206 201
163 163 170 171 170 171 172 162 178 187 186 195 199 192 184 181 191 211 214 233 232 231 231 234 233 231 226 225 227 234 235 230 228 232 238 235 224 220 214 212 213 212 206
157 169 170 170 171 177 172 173 177 180 184 192 199 191 182 186 200 206 210 218 219 220 216 219 223 226 234 232 229 236 239 231 231 230 236 238 228 224 219 216 218 217 211
153 167 166 159 160 163 160 175 173 183 186 191 193 200 193 194 203 206 208 208 213 208 206 212 216 227 237 241 239 240 247 238 234 235 242 240 231 226 222 220 220 220 217
133 148 153 155 159 156 160 166 171 182 183 181 186 199 199 198 201 202 206 210 214 210 212 216 213 221 233 238 245 247 249 242 235 234 235 240 234 230 228 226 224 223 223
139 135 150 155 155 162 166 169 165 181 166 172 182 187 187 193 201 204 204 211 218 211 210 220 224 225 232 240 245 251 250 243 236 236 231 229 234 237 237 235 231 228 228
113 107 121 132 139 153 158 164 161 171 167 180 180 184 193 195 196 201 213 220 218 206 203 213 210 220 235 239 241 246 243 240 236 235 226 225 228 236 238 238 236 233 232
107 100 82 62 97 135 134 145 154 161 173 186 178 186 198 206 202 200 223 233 217 207 209 224 213 206 237 249 245 237 238 241 241 236 228 227 225 226 226 235 238 237 235
92 89 86 73 52 80 91 78 87 99 170 164 171 195 202 213 212 205 224 241 214 206 232 237 229 224 230 245 261 261 252 249 238 222 224 227 225 226 224 228 231 235 236
74 75 71 75 50 68 75 84 80 191 208 171 214 197 208 221 215 201 222 232 217 209 225 235 235 244 257 255 305 297 290 268 248 232 219 216 229 232 226 223 222 222 234
57 60 60 60 42 49 84 185 163 161 242 194 245 265 232 223 214 203 212 229 226 219 245 242 219 224 260 207 174 225 307 317 290 256 238 228 236 238 238 234 227 224 225
56 57 60 61 43 17 12 50 61 42 19 15 335 307 286 251 227 216 206 214 222 196 224 245 232 204 233 251 195 172 192 244 287 285 245 239 244 243 248 245 238 233 228
63 64 43 33 26 11 6 50 118 133 222 254 237 238 257 279 282 239 209 198 202 205 222 241 234 228 209 239 254 223 206 194 207 287 301 276 259 252 249 255 251 245 234
57 59 53 40 16 354 348 316 155 213 231 258 278 276 279 267 258 248 209 218 227 221 226 243 243 241 222 221 225 230 234 234 207 202 271 298 301 275 255 250 246 243 239
45 47 46 42 15 359 4 357 164 227 278 349 297 277 280 283 279 274 236 228 244 243 237 238 243 242 237 232 227 216 205 210 220 204 229 263 278 279 272 255 243 238 237